Location: Most
(50.5133°N, 13.6207°E)
Time: 22:41:46
(UTC+02:00)

ISS - Pass Details

Date: 14 September 2019
Orbit: 411 x 421 km, 51.6° (Epoch: 17 September)

Event Time Altitude Azimuth Distance (km) Brightness Sun altitude
Exits shadow 04:45:04 29° 171° (S) 789 -2.6 -17.9°
Drops below altitude 10° 04:47:12 10° 141° (SE) 1,487 -0.9 -17.6°
Sets 04:49:22 0° 133° (SE) 2,349 0.3 -17.3°
